Laupheim, Germany

01:13 AM CEST am 25. Mai 2017 (GMT +0200)
Laupheim Army

Wetter Verlauf für ETHL - Mai, 2017

Change the Weather History Date:

Freitag, Mai 19, 2017

  Actual Average Record
Temperature  
mittlereTemperatur 54 °F -  
Max. Temperatur 63 °F - - ()
Min.Temperatur 44 °F - - ()
Degree Days  
Heizgradtage 12    
Growing Degree Days 4 (Base 50)    
Moisture  
Taupunkt 51 °F    
Average Humidity 82    
Maximum Humidity 100    
Minimum Humidity 62    
Niederschlag  
Niederschlag 0.00 inch - - ()
Luftdruck in Meereshöhe  
Luftdruck in Meereshöhe 29.90 inch    
Wind  
Windgeschwindigkeit 5 mph ()    
Max. Windgeschwindigkeit 16 mph    
Max Gust Speed 29 mph    
Sichtweite 7.6 Meilen    
Ereignisse Regen    
T = Trace of Precipitation, MM = Missing Value Source: Averaged Metar Reports

Daily Weather History Graph

Daily Weather History Graph

Search for Another Location

Airport or City:

Trip Planner

Search our weather history database for the weather conditions in past years. The results will help you decide how hot, cold, wet, or windy it might be!

Date:

Astronomie

May. 19, 2017 Aufgang Untergang
Genaue Zeit 05:35 CEST 20:58 CEST
Bürgerliche Dämmerung 04:57 CEST 21:36 CEST
Nautische Dämmerung 04:07 CEST 22:27 CEST
Astronomische Dämmerung 03:02 CEST 23:33 CEST
Mond 02:30 CEST (5/19) 13:05 CEST (5/19)
Länge des sichtbaren Lichts 16h 38m
Tageslänge
15h 22m
Letztes Viertel, 46% of the Moon is Illuminated
Mai 19
Letztes Viertel
Mai 25
Neu
Jun 1
Erstes Viertel
Jun 9
Vollmond
Jun 17
Letztes Viertel

Hourly Weather History & Observations

Zeit (CEST) Temp. Windchill Taupunkt Feuchtigkeit Druck Sichtweite Wind Dir Windgeschwindigkeit Böengeschwindigkeit Precip Ereignisse Wetterzustand
12:20 AM 62.6 °F - 55.4 °F 77% 29.83 inch 6.2 mi Nord-Nordost 1.2 mph - N/A   Wolkig
1:00 AM 62 °F - 55 °F 72% 29.80 inch 19 mi West 4.5 mph - -   Teils Wolkig
1:20 AM 60.8 °F - 55.4 °F 82% 29.83 inch 6.2 mi West-Südwest 6.9 mph - N/A   Wolkig
2:20 AM 60.8 °F - 55.4 °F 82% 29.83 inch 6.2 mi Wechselnd 1.2 mph - N/A   Wolkig
3:00 AM 60 °F - 55 °F 80% 29.80 inch 12 mi 2.2 mph - -   Teils Wolkig
3:20 AM 59.0 °F - 55.4 °F 88% 29.80 inch 6.2 mi Ost-Nordost 3.5 mph - N/A   Wolkig
4:20 AM 57.2 °F - 53.6 °F 88% 29.80 inch 6.2 mi Süd 2.3 mph - N/A   Teils Wolkig
5:20 AM 57.2 °F - 53.6 °F 88% 29.83 inch 6.2 mi Nordwest 2.3 mph - N/A   Teils Wolkig
6:20 AM 57.2 °F - 53.6 °F 88% 29.83 inch 6.2 mi Nord-Nordost 4.6 mph - N/A   Wolkig
7:20 AM 60.8 °F - 53.6 °F 77% 29.83 inch 6.2 mi Nord-Nordost 5.8 mph - N/A   Wolkig
8:20 AM 62.6 °F - 51.8 °F 68% 29.83 inch 6.2 mi Nord-Nordost 5.8 mph - N/A   Wolkig
9:00 AM 62 °F - 52 °F 62% 29.80 inch 16 mi Nord-Nordwest 4.5 mph - -   Teils Wolkig
9:20 AM 62.6 °F - 51.8 °F 68% 29.83 inch 6.2 mi Nordwest 2.3 mph - N/A   Wolkig
10:20 AM 62.6 °F - 53.6 °F 72% 29.83 inch 6.2 mi West-Nordwest 2.3 mph - N/A   Wolkig
11:20 AM 62.6 °F - 53.6 °F 72% 29.83 inch 6.2 mi West-Nordwest 3.5 mph - N/A Regen Leichter Regen
12:00 PM 63 °F - 55 °F 67% 29.80 inch 17 mi West 4.5 mph - - Regen Leichter Regen
12:04 PM 62.6 °F - 53.6 °F 72% 29.83 inch 6.2 mi West-Nordwest 4.6 mph - N/A Regen Leichter Regen
12:20 PM 62.6 °F - 53.6 °F 72% 29.83 inch 6.2 mi Nord-Nordwest 3.5 mph - N/A Regen Leichter Regen
1:00 PM 63 °F - 55 °F 67% 29.80 inch 19 mi West-Nordwest 4.5 mph - - Regen Leichter Regen
1:20 PM 62.6 °F - 53.6 °F 72% 29.83 inch 6.2 mi West 4.6 mph - N/A   Wolkig
2:20 PM 53.6 °F - 51.8 °F 94% 29.86 inch 6.2 mi Nordwest 5.8 mph - N/A Regen Regen
2:27 PM 53.6 °F - 51.8 °F 94% 29.89 inch 1.7 mi West-Nordwest 9.2 mph - N/A Regen Starkregen
2:45 PM 53.6 °F - 51.8 °F 94% 29.89 inch 3.1 mi West 10.4 mph - N/A Regen Leichter Regen
3:20 PM 51.8 °F - 51.8 °F 100% 29.92 inch 5.0 mi West 12.7 mph - N/A Regen Leichter Regen
3:30 PM 51.8 °F - 50.0 °F 94% 29.92 inch 6.2 mi West 15.0 mph 28.8 mph N/A   Wolkig
4:00 PM 51 °F - 49 °F 88% 29.94 inch 5 mi West 15.7 mph - - Regen Leichter Regen
4:20 PM 51.8 °F - 48.2 °F 88% 29.95 inch 5.0 mi West 13.8 mph - N/A Regen Leichter Regen
4:38 PM 50.0 °F - 48.2 °F 94% 29.95 inch 2.8 mi West 12.7 mph - N/A Regen Regen
5:20 PM 50.0 °F - 48.2 °F 94% 29.98 inch 5.0 mi West 11.5 mph - N/A Regen Leichter Regen
6:00 PM 49 °F - 47 °F 88% 30.02 inch 5 mi West 15.7 mph - - Regen Leichter Regen
6:20 PM 50.0 °F - 46.4 °F 87% 30.01 inch 6.2 mi West-Südwest 13.8 mph - N/A Regen Leichter Regen
7:20 PM 48.2 °F - 44.6 °F 87% 30.06 inch 6.2 mi West-Südwest 12.7 mph - N/A Regen Leichter Regen
8:20 PM 46.4 °F 40.4 °F 42.8 °F 87% 30.06 inch 6.2 mi Südwest 13.8 mph - N/A   Wolkig
9:00 PM 46 °F - 42 °F 79% 30.11 inch 16 mi West-Südwest 11.2 mph - -   Bedeckt
9:20 PM 46.4 °F 40.7 °F 42.8 °F 87% 30.09 inch 6.2 mi West-Südwest 12.7 mph - N/A   Wolkig
10:00 PM 45 °F - 42 °F 83% 30.13 inch 16 mi West-Südwest 11.2 mph - -   Teils Wolkig
10:20 PM 44.6 °F 39.7 °F 41.0 °F 87% 30.09 inch 6.2 mi West-Südwest 9.2 mph - N/A   Wolkig
11:20 PM 44.6 °F 40.7 °F 41.0 °F 87% 30.12 inch 6.2 mi Südwest 6.9 mph - N/A   Teils Wolkig